Weather History for KVCB - February, 2013

Change the Weather History Date:

Monday, February 25, 2013

  Actual Average Record
Temperature  
Mean Temperature 48 °F -  
Max Temperature 64 °F 63 °F 75 °F (1954)
Min Temperature 33 °F 40 °F 29 °F (1953)
Degree Days  
Heating Degree Days 16    
Moisture  
Dew Point 34 °F    
Average Humidity 57    
Maximum Humidity 85    
Minimum Humidity 29    
Precipitation  
Precipitation 0.00 in - - ()
Sea Level Pressure  
Sea Level Pressure 30.23 in    
Wind  
Wind Speed 5 mph (WNW)    
Max Wind Speed 9 mph    
Max Gust Speed -    
Visibility 10 miles    
Events      
Averages and records for this station are not official NWS values.
T = Trace of Precipitation, MM = Missing Value Source: NWS Daily Summary

Daily Weather History Graph

Daily Weather History Graph

Search for Another Location

Airport or City:

Trip Planner

Search our weather history database for the weather conditions in past years. The results will help you decide how hot, cold, wet, or windy it might be!

Date:

Astronomy

Feb. 25, 2013 Rise Set
Actual Time 6:44 AM PST 5:57 PM PST
Civil Twilight 6:18 AM PST 6:23 PM PST
Nautical Twilight 5:47 AM PST 6:54 PM PST
Astronomical Twilight 5:17 AM PST 7:25 PM PST
Moon 6:15 PM PST (2/25) 6:18 AM PST (2/25)
Length of Visible Light 12h 05m
Length of Day
11h 12m
Full, 100% of the Moon is Illuminated
Feb 25
Full
Feb 25
Full
Mar 4
Last Quarter
Mar 11
New
Mar 19
First Quarter

Hourly Weather History & Observations

Time (PST) Temp. Windchill Dew Point Humidity Pressure Visibility Wind Dir Wind Speed Gust Speed Precip Events Conditions
12:53 AM 44.1 °F 40.1 °F 30.9 °F 60% 30.24 in 10.0 mi SW 6.9 mph - N/A   Clear
1:53 AM 44.1 °F 42.5 °F 30.0 °F 58% 30.24 in 10.0 mi Variable 3.5 mph - N/A   Clear
2:53 AM 48.0 °F - 34.0 °F 58% 30.24 in 10.0 mi South 9.2 mph - N/A   Clear
3:53 AM 35.1 °F - 28.9 °F 78% 30.24 in 10.0 mi Calm Calm - N/A   Clear
4:53 AM 33.1 °F 30.0 °F 28.9 °F 85% 30.25 in 10.0 mi WNW 3.5 mph - N/A   Clear
5:53 AM 34.0 °F - 30.0 °F 85% 30.25 in 10.0 mi Calm Calm - N/A   Clear
6:53 AM 44.1 °F 40.8 °F 37.9 °F 79% 30.25 in 10.0 mi SSE 5.8 mph - N/A   Clear
7:53 AM 42.1 °F 40.2 °F 37.9 °F 85% 30.26 in 9.0 mi NNE 3.5 mph - N/A   Clear
8:53 AM 48.0 °F - 37.0 °F 66% 30.26 in 10.0 mi Calm Calm - N/A   Clear
9:53 AM 53.1 °F - 39.0 °F 59% 30.25 in 10.0 mi Calm Calm - N/A   Clear
10:53 AM 55.9 °F - 37.9 °F 51% 30.25 in 10.0 mi Variable 4.6 mph - N/A   Clear
11:53 AM 59.0 °F - 37.0 °F 44% 30.25 in 10.0 mi Variable 5.8 mph - N/A   Clear
12:53 PM 61.0 °F - 39.0 °F 44% 30.23 in 10.0 mi Variable 6.9 mph - N/A   Clear
1:53 PM 62.1 °F - 39.9 °F 44% 30.23 in 10.0 mi North 6.9 mph - N/A   Clear
2:53 PM 64.0 °F - 37.9 °F 38% 30.22 in 10.0 mi North 6.9 mph - N/A   Clear
3:53 PM 64.0 °F - 35.1 °F 34% 30.21 in 10.0 mi Variable 5.8 mph - N/A   Clear
4:53 PM 62.1 °F - 28.9 °F 29% 30.18 in 10.0 mi North 4.6 mph - N/A   Clear
5:53 PM 55.9 °F - 30.9 °F 39% 30.18 in 10.0 mi North 4.6 mph - N/A   Clear
6:53 PM 48.0 °F - 30.0 °F 50% 30.19 in 10.0 mi NNW 4.6 mph - N/A   Clear
7:53 PM 48.9 °F - 30.0 °F 48% 30.19 in 10.0 mi WSW 4.6 mph - N/A   Clear
8:53 PM 45.0 °F 42.6 °F 30.0 °F 56% 30.20 in 10.0 mi WSW 4.6 mph - N/A   Clear
9:53 PM 45.0 °F 43.5 °F 33.1 °F 63% 30.20 in 10.0 mi SW 3.5 mph - N/A   Clear
10:53 PM 42.1 °F 39.2 °F 33.1 °F 70% 30.20 in 10.0 mi West 4.6 mph - N/A   Clear
11:53 PM 48.0 °F - 30.0 °F 50% 30.20 in 10.0 mi Calm Calm - N/A   Clear